Weather History for Cut Bank, MT

Change the Weather History Date:

Thursday, May 2, 2013

  Actual Average Record
Temperature  
Mean Temperature 48 °F 46 °F  
Max Temperature 64 °F 59 °F 83 °F (1985)
Min Temperature 32 °F 33 °F 9 °F (1954)
Degree Days  
Heating Degree Days 17 19  
Month to date heating degree days 49 39  
Since 1 July heating degree days 7680 7859  
Cooling Degree Days 0 0  
Month to date cooling degree days 0 0  
Year to date cooling degree days 0 0  
Moisture  
Dew Point 21 °F    
Average Humidity 39    
Maximum Humidity 61    
Minimum Humidity 17    
Precipitation  
Precipitation 0.00 in 0.03 in 1.91 in (1964)
Month to date precipitation 0.00 0.07  
Year to date precipitation 2.02 1.76  
Snow  
Snow 0.00 in - - ()
Snow Depth 0.00 in    
Sea Level Pressure  
Sea Level Pressure 30.37 in    
Wind  
Wind Speed 14 mph (WSW)    
Max Wind Speed 24 mph    
Max Gust Speed 30 mph    
Visibility 10 miles    
Events      
T = Trace of Precipitation, MM = Missing Value Source: NWS Daily Summary

Daily Weather History Graph

Daily Weather History Graph

Search for Another Location

Airport:

Trip Planner

Search our weather history database for the weather conditions in past years. The results will help you decide how hot, cold, wet, or windy it might be!

Date:

Astronomy

May. 02, 2013 Rise Set
Actual Time 6:07 AM MDT 8:46 PM MDT
Civil Twilight 5:32 AM MDT 9:21 PM MDT
Nautical Twilight 4:47 AM MDT 10:07 PM MDT
Astronomical Twilight 3:54 AM MDT 11:00 PM MDT
Moon 2:33 AM MDT (5/2) 1:05 PM MDT (5/2)
Length of Visible Light 15h 49m
Length of Day
14h 38m
Waning Gibbous, 47% of the Moon is Illuminated
May 2
Waning Gibbous
May 9
New
May 17
First Quarter
May 24
Full
May 31
Last Quarter

Hourly Weather History & Observations

Time (MDT) Temp. Windchill Dew Point Humidity Pressure Visibility Wind Dir Wind Speed Gust Speed Precip Events Conditions
12:56 AM 33.1 °F 24.9 °F 19.9 °F 59% 30.53 in 10.0 mi WSW 10.4 mph - N/A   Clear
1:56 AM 34.0 °F 25.5 °F 21.0 °F 59% 30.53 in 10.0 mi WSW 11.5 mph - N/A   Clear
2:56 AM 36.0 °F 27.5 °F 19.9 °F 52% 30.52 in 10.0 mi West 12.7 mph - N/A   Clear
3:56 AM 35.1 °F 26.4 °F 19.9 °F 54% 30.52 in 10.0 mi West 12.7 mph - N/A   Clear
4:56 AM 36.0 °F 26.3 °F 19.9 °F 52% 30.51 in 10.0 mi West 16.1 mph - N/A   Clear
5:56 AM 35.1 °F 25.5 °F 19.0 °F 52% 30.50 in 10.0 mi WSW 15.0 mph - N/A   Clear
6:56 AM 37.0 °F 28.1 °F 19.9 °F 50% 30.50 in 10.0 mi WSW 15.0 mph - N/A   Clear
7:56 AM 44.1 °F 38.1 °F 21.0 °F 40% 30.47 in 10.0 mi WSW 11.5 mph - N/A   Clear
8:56 AM 51.1 °F - 19.0 °F 28% 30.45 in 10.0 mi WSW 18.4 mph - N/A   Clear
9:56 AM 54.0 °F - 17.1 °F 23% 30.43 in 10.0 mi WSW 18.4 mph 23.0 mph N/A   Clear
10:56 AM 55.9 °F - 16.0 °F 21% 30.42 in - North - - N/A   Unknown
11:56 AM - - - N/A% 30.36 in - North - - N/A   Unknown
12:56 PM - - - N/A% 30.34 in - North - - N/A   Unknown
2:56 PM 62.1 °F - 18.0 °F 18% 30.30 in 10.0 mi WSW 16.1 mph - N/A   Unknown
3:56 PM 64.0 °F - 19.9 °F 18% 30.26 in 10.0 mi West 18.4 mph 27.6 mph N/A   Clear
4:56 PM 63.0 °F - 19.0 °F 18% 30.24 in 10.0 mi West 15.0 mph 27.6 mph N/A   Clear
5:56 PM 62.1 °F - 21.0 °F 21% 30.23 in 10.0 mi West 19.6 mph 27.6 mph N/A   Clear
6:56 PM 60.1 °F - 21.0 °F 22% 30.23 in 10.0 mi West 16.1 mph - N/A   Clear
7:56 PM 55.0 °F - 23.0 °F 29% 30.24 in 10.0 mi WSW 13.8 mph - N/A   Clear
8:56 PM 48.9 °F - 26.1 °F 41% 30.23 in 10.0 mi West 11.5 mph - N/A   Clear
9:56 PM 50.0 °F - 26.1 °F 39% 30.21 in 10.0 mi West 15.0 mph - N/A   Clear
10:56 PM 50.0 °F - 26.1 °F 39% 30.19 in 10.0 mi West 12.7 mph - N/A   Clear
11:56 PM 48.0 °F - 27.0 °F 44% 30.20 in 10.0 mi West 10.4 mph - N/A   Clear